AFR2 LFPG-KJFK

Flight info

Callsign AFR2
Flight time N/A
Altitude 34000
Route ELCOB UT300 SENLO DCT JSY DCT LIZAD DCT LULOX/M082F340 DCT GIPER/N0470F340 DCT ADARA/M082F340 DCT 52N020W 52N030W 5130N04000W 49N050W DCT JOOPY/N0471F340 N328A TUSKY DCT PLYMM PARCH4
Aircraft B77W/H-SDE1E2E3FGHIJ2J3J4J5M1RWXY/LB1D1

Departure

Time 2026-05-06 06:51
Airport Charles de Gaulle International Airport (LFPG)

Arrival

Time N/A
Airport John F. Kennedy International Airport (KJFK)
Time Latitude Longitude Altitude Speed Heading
2026-05-06 04:52 49.00233 2.59225 335 ft 0 kts 265°
2026-05-06 06:38 49.00234 2.59240 335 ft 2 kts 264°
2026-05-06 06:39 49.00235 2.59256 335 ft 1 kts 265°
2026-05-06 06:39 49.00237 2.59278 335 ft 2 kts 254°
2026-05-06 06:39 49.00243 2.59299 334 ft 2 kts 237°
2026-05-06 06:39 49.00252 2.59317 334 ft 2 kts 223°
2026-05-06 06:40 49.00264 2.59330 334 ft 2 kts 209°
2026-05-06 06:40 49.00277 2.59339 333 ft 2 kts 195°
2026-05-06 06:40 49.00292 2.59343 333 ft 2 kts 181°
2026-05-06 06:40 49.00300 2.59342 333 ft 0 kts 175°
2026-05-06 06:43 49.00299 2.59342 333 ft 0 kts 175°
2026-05-06 06:43 49.00286 2.59344 333 ft 3 kts 175°
2026-05-06 06:43 49.00252 2.59348 333 ft 6 kts 176°
2026-05-06 06:43 49.00200 2.59354 333 ft 8 kts 176°
2026-05-06 06:44 49.00131 2.59362 333 ft 11 kts 177°
2026-05-06 06:44 49.00048 2.59342 333 ft 12 kts 197°
2026-05-06 06:44 48.99979 2.59262 333 ft 13 kts 246°
2026-05-06 06:44 48.99962 2.59109 333 ft 15 kts 266°
2026-05-06 06:45 48.99953 2.58945 333 ft 16 kts 266°
2026-05-06 06:45 48.99945 2.58772 332 ft 16 kts 266°
2026-05-06 06:45 48.99936 2.58594 333 ft 16 kts 265°
2026-05-06 06:45 48.99926 2.58413 333 ft 17 kts 265°
2026-05-06 06:46 48.99916 2.58225 333 ft 18 kts 266°
2026-05-06 06:46 48.99906 2.58032 333 ft 18 kts 265°
2026-05-06 06:46 48.99895 2.57836 334 ft 18 kts 265°
2026-05-06 06:46 48.99884 2.57640 335 ft 18 kts 265°
2026-05-06 06:47 48.99874 2.57438 334 ft 19 kts 266°
2026-05-06 06:47 48.99863 2.57234 334 ft 19 kts 265°
2026-05-06 06:47 48.99852 2.57029 336 ft 18 kts 266°
2026-05-06 06:47 48.99843 2.56836 337 ft 18 kts 266°
2026-05-06 06:48 48.99834 2.56638 337 ft 19 kts 265°
2026-05-06 06:48 48.99823 2.56434 337 ft 19 kts 265°
2026-05-06 06:48 48.99809 2.56231 336 ft 17 kts 265°
2026-05-06 06:48 48.99799 2.56078 337 ft 10 kts 249°
2026-05-06 06:49 48.99734 2.56028 337 ft 12 kts 180°
2026-05-06 06:49 48.99657 2.56040 337 ft 5 kts 176°
2026-05-06 06:49 48.99618 2.56077 336 ft 5 kts 115°
2026-05-06 06:49 48.99614 2.56133 336 ft 2 kts 84°
2026-05-06 06:50 48.99614 2.56141 336 ft 1 kts 84°
2026-05-06 06:50 48.99626 2.56313 334 ft 47 kts 85°
2026-05-06 06:50 48.99677 2.57181 334 ft 115 kts 86°
2026-05-06 06:50 48.99750 2.58707 340 ft 169 kts 83°
2026-05-06 06:51 48.99831 2.60571 758 ft 184 kts 81°
2026-05-06 06:51 48.99950 2.62505 1592 ft 187 kts 80°
2026-05-06 06:51 49.00060 2.64479 2091 ft 195 kts 79°
2026-05-06 06:51 49.00177 2.66632 2399 ft 214 kts 80°
2026-05-06 06:52 49.00203 2.69014 2732 ft 236 kts 97°
2026-05-06 06:52 48.99428 2.71310 3122 ft 264 kts 131°
2026-05-06 06:52 48.97756 2.72665 3699 ft 280 kts 169°
2026-05-06 06:52 48.95849 2.72391 4424 ft 282 kts 204°
2026-05-06 06:53 48.94313 2.70626 5094 ft 281 kts 234°
2026-05-06 06:53 48.93161 2.68222 5889 ft 280 kts 238°
2026-05-06 06:53 48.92077 2.65828 6674 ft 280 kts 238°
2026-05-06 06:53 48.90972 2.63381 7368 ft 282 kts 238°
2026-05-06 06:54 48.89858 2.60916 8073 ft 284 kts 238°
2026-05-06 06:54 48.88742 2.58451 8761 ft 286 kts 238°
2026-05-06 06:54 48.87608 2.55947 9411 ft 289 kts 238°
2026-05-06 06:54 48.86478 2.53455 10074 ft 291 kts 238°
2026-05-06 06:55 48.85310 2.50879 10443 ft 305 kts 237°
2026-05-06 06:55 48.84073 2.48154 10766 ft 320 kts 237°
2026-05-06 06:55 48.82788 2.45325 11076 ft 335 kts 238°
2026-05-06 06:55 48.81664 2.42153 11361 ft 350 kts 251°
2026-05-06 06:56 48.81074 2.38500 11657 ft 363 kts 266°
2026-05-06 06:56 48.81145 2.34688 12124 ft 370 kts 281°
2026-05-06 06:56 48.81784 2.30937 12781 ft 373 kts 287°